DW6455 Orivesi FI current weather conditions

sailwx.info

Wind from 168 at 11 knots gusting 19

Air temperature 1.7° C
Dewpoint 1.2° C

Last reported at 2017-Nov-23 23:52 UTC.
Time now 2017-Nov-24 15:11 UTC

Location: N 61°39' E 024°21'.
View on Google Maps.

See reports from other nearby stations

  
Tides and Currents Weather Stations Pressure Air Temp Water Temp Dewpoint Dewpoint Depression Visibility Wind Speed Wind Dir Waves Ship Positions
date/time (UTC)wind fromknots sea level pressurealtimeterstation pressurevisibilityair tempwater tempwave heightnotes
2017-Nov-23 23:52 168 11 gusting 19 1.7
2017-Nov-23 23:47 153 9 gusting 19 1.7
2017-Nov-23 23:42 183 8 gusting 19 1.7
2017-Nov-23 23:37 184 8 gusting 19 1.7
2017-Nov-23 23:32 194 8 gusting 19 1.7
2017-Nov-23 23:27 165 7 gusting 21 1.7
2017-Nov-23 23:22 188 7 gusting 21 1.7
2017-Nov-23 23:17 165 7 gusting 21 1.7
2017-Nov-23 23:12 182 8 gusting 21 1.7
2017-Nov-23 23:07 161 9 gusting 19 1.7
2017-Nov-23 23:02 154 10 gusting 19 1.7
2017-Nov-23 22:57 150 10 gusting 19 1.7
2017-Nov-23 22:52 165 10 gusting 20 1.7
2017-Nov-23 22:47 171 10 gusting 20 1.1
2017-Nov-23 22:42 142 9 gusting 20 1.1
2017-Nov-23 22:37 177 9 gusting 20 1.1
2017-Nov-23 22:32 165 9 gusting 23 1.1
2017-Nov-23 22:27 118 9 gusting 23 1.1
2017-Nov-23 22:22 186 9 gusting 23 1.1
2017-Nov-23 22:17 143 9 gusting 17 1.1
2017-Nov-23 22:12 165 7 gusting 17 1.1
2017-Nov-23 22:07 191 7 gusting 17 1.1
2017-Nov-23 22:02 163 8 gusting 17 1.1
2017-Nov-23 21:57 165 9 gusting 20 1.1
2017-Nov-23 21:52 186 9 gusting 20 1.1
2017-Nov-23 21:47 170 10 gusting 19 1.1
2017-Nov-23 21:42 157 10 gusting 19 1.1
2017-Nov-23 21:37 168 10 gusting 19 1.1
2017-Nov-23 21:32 155 10 gusting 19 1.1
2017-Nov-23 21:27 166 10 gusting 19 1.1
2017-Nov-23 21:22 173 9 gusting 19 1.1
2017-Nov-23 21:17 167 9 gusting 20 1.1
2017-Nov-23 21:12 160 10 gusting 20 1.1
2017-Nov-23 21:07 165 11 gusting 20 1.1
2017-Nov-23 21:02 142 11 gusting 20 1.1
2017-Nov-23 20:57 157 11 gusting 20 1.1
2017-Nov-23 20:52 182 11 gusting 23 1.1
2017-Nov-23 20:47 144 12 gusting 23 1.1
2017-Nov-23 20:42 162 13 gusting 23 1.1
2017-Nov-23 20:37 167 13 gusting 19 1.1
2017-Nov-23 20:32 121 12 gusting 19 1.1
2017-Nov-23 20:27 174 11 gusting 19 1.1
2017-Nov-23 20:22 151 9 gusting 19 1.1
2017-Nov-23 20:17 153 9 gusting 19 1.1
2017-Nov-23 20:12 209 9 gusting 19 1.1
2017-Nov-23 20:07 165 9 gusting 23 1.1
2017-Nov-23 20:02 176 9 gusting 23 1.1
2017-Nov-23 19:57 160 10 gusting 23 1.1
2017-Nov-23 19:52 148 12 gusting 20 1.1
2017-Nov-23 19:47 192 13 gusting 20 1.1
2017-Nov-23 19:42 136 12 gusting 20 1.1
2017-Nov-23 19:37 156 10 gusting 22 1.1
2017-Nov-23 19:32 163 10 gusting 22 1.1
2017-Nov-23 19:27 143 11 gusting 23 1.1
2017-Nov-23 19:22 160 12 gusting 23 1.1
2017-Nov-23 19:17 173 12 gusting 23 1.1
2017-Nov-23 19:12 173 11 gusting 18 1.1
2017-Nov-23 19:07 194 11 gusting 18 1.1
2017-Nov-23 19:02 147 10 gusting 18 1.1
2017-Nov-23 18:57 191 10 gusting 22 1.1
2017-Nov-23 18:52 160 10 gusting 22 1.1
2017-Nov-23 18:47 142 10 gusting 21 1.1
2017-Nov-23 18:42 169 10 gusting 21 1.1
2017-Nov-23 18:38 163 9 gusting 18 1.1
2017-Nov-23 18:32 196 8 gusting 18 1.1
2017-Nov-23 18:27 142 8 gusting 18 1.1
2017-Nov-23 18:23 165 8 gusting 18 1.1
2017-Nov-23 18:17 148 8 gusting 18 1.1
2017-Nov-23 18:12 160 8 gusting 18 1.1
2017-Nov-23 18:07 157 8 gusting 25 1.1
2017-Nov-23 18:02 163 9 gusting 25 1.1
2017-Nov-23 17:57 156 8 gusting 25 1.1
2017-Nov-23 17:52 171 8 gusting 19 0.6
2017-Nov-23 17:47 192 10 gusting 19 0.6
2017-Nov-23 17:42 169 9 gusting 19 0.6
2017-Nov-23 17:37 164 8 gusting 22 0.6
2017-Nov-23 17:32 176 8 gusting 22 0.6
2017-Nov-23 17:27 164 8 gusting 22 0.6
2017-Nov-23 17:22 181 8 gusting 22 0.6
2017-Nov-23 17:17 174 7 gusting 23 0.6
2017-Nov-23 17:12 165 8 gusting 23 0.6
2017-Nov-23 17:07 196 10 gusting 23 0.6
2017-Nov-23 17:02 197 9 gusting 23 0.6
2017-Nov-23 16:57 163 7 gusting 21 0.6
2017-Nov-23 16:52 169 7 gusting 21 0.6
2017-Nov-23 16:47 148 9 gusting 21 0.6
2017-Nov-23 16:42 186 9 gusting 21 0.6
2017-Nov-23 16:37 176 9 gusting 20 0.6
2017-Nov-23 16:32 183 11 gusting 20 0.6
2017-Nov-23 16:27 156 10 gusting 20 0.6
2017-Nov-23 16:02 167 12 gusting 20 0.6
2017-Nov-23 15:57 161 11 gusting 20 0.6
2017-Nov-23 15:52 190 11 gusting 26 0.6
2017-Nov-23 15:47 163 12 gusting 26 0.6
2017-Nov-23 15:42 165 11 gusting 26 0.6
2017-Nov-23 15:37 170 10 gusting 24 0.6
2017-Nov-23 15:32 162 11 gusting 24 0.6
2017-Nov-23 15:27 154 10 gusting 25 0.6
2017-Nov-23 15:22 178 12 gusting 25 0.6
2017-Nov-23 15:17 169 13 gusting 25 0.6
2017-Nov-23 15:12 159 12 gusting 22 0.6
2017-Nov-23 15:07 160 13 gusting 22 0.6
2017-Nov-23 15:02 139 13 gusting 22 0.6
2017-Nov-23 14:57 159 13 gusting 25 0.6
2017-Nov-23 14:52 197 13 gusting 25 0.6
2017-Nov-23 14:47 177 12 gusting 25 0.6
2017-Nov-23 14:42 167 13 gusting 25 0.6
2017-Nov-23 14:37 171 13 gusting 25 0.6
2017-Nov-23 14:32 167 13 gusting 25 0.6
2017-Nov-23 14:27 175 13 gusting 25 0.6
2017-Nov-23 14:22 160 13 gusting 25 0.6
2017-Nov-23 14:17 161 13 gusting 21 0.6
2017-Nov-23 14:12 167 13 gusting 21 0.6
2017-Nov-23 14:07 153 11 gusting 26 0.6
2017-Nov-23 14:02 161 12 gusting 26 0.6
2017-Nov-23 13:57 147 13 gusting 26 0.6
2017-Nov-23 13:52 172 13 gusting 26 0.6
2017-Nov-23 13:47 171 13 gusting 26 0.6
2017-Nov-23 13:42 157 14 gusting 26 0.6
2017-Nov-23 13:37 155 14 gusting 25 0.6
2017-Nov-23 13:32 165 15 gusting 25 0.6
2017-Nov-23 13:27 167 13 gusting 23 0.6
2017-Nov-23 13:22 161 13 gusting 23 0.6
2017-Nov-23 13:17 161 13 gusting 23 0.6
2017-Nov-23 13:12 153 13 gusting 26 0.6
2017-Nov-23 13:07 148 13 gusting 26 0.6
2017-Nov-23 13:02 177 13 gusting 26 0.6
2017-Nov-23 12:57 146 13 gusting 26 0.6
2017-Nov-23 12:52 148 13 gusting 26 0.6
2017-Nov-23 12:47 165 14 gusting 30 0.6
2017-Nov-23 12:42 170 14 gusting 30 0.6
2017-Nov-23 12:37 160 13 gusting 25 0.6
2017-Nov-23 12:12 146 13 gusting 22 -0.0
2017-Nov-23 12:07 148 13 gusting 19 -0.0
2017-Nov-23 12:02 146 12 gusting 19 -0.0
2017-Nov-23 11:57 159 10 gusting 19 -0.0
2017-Nov-23 11:52 129 11 gusting 20 -0.0
2017-Nov-23 11:47 161 11 gusting 20 -0.0
2017-Nov-23 11:42 165 11 gusting 20 -0.6
2017-Nov-23 11:37 175 12 gusting 24 -0.6
2017-Nov-23 11:32 150 12 gusting 24 -0.6
2017-Nov-23 11:27 149 12 gusting 24 -0.6
2017-Nov-23 11:22 159 11 gusting 24 -0.6
2017-Nov-23 11:17 164 12 gusting 20 -0.6
2017-Nov-23 11:12 169 12 gusting 20 -0.6
2017-Nov-23 11:07 161 11 gusting 20 -0.6
2017-Nov-23 11:02 182 10 gusting 20 -0.6
2017-Nov-23 10:57 140 11 gusting 20 -0.6
2017-Nov-23 10:52 147 11 gusting 20 -0.6
2017-Nov-23 10:47 190 11 gusting 20 -0.6
2017-Nov-23 10:42 153 11 gusting 20 -0.6
2017-Nov-23 10:39 134 10 gusting 21 -1.1
2017-Nov-23 10:32 153 11 gusting 21 -1.1
2017-Nov-23 10:27 153 12 gusting 21 -1.1
2017-Nov-23 10:22 157 11 gusting 23 -1.1
2017-Nov-23 10:17 152 10 gusting 23 -1.1
2017-Nov-23 10:12 150 11 gusting 23 -1.1
2017-Nov-23 10:07 148 11 gusting 23 -1.1
2017-Nov-23 10:02 164 13 gusting 23 -1.1
2017-Nov-23 09:57 167 12 gusting 23 -1.1
2017-Nov-23 09:47 140 12 gusting 25 -1.1
2017-Nov-23 09:42 172 12 gusting 25 -1.1
2017-Nov-23 09:37 148 13 gusting 24 -1.1
2017-Nov-23 09:32 150 13 gusting 24 -1.1
2017-Nov-23 09:27 171 12 gusting 23 -1.1
2017-Nov-23 09:22 141 13 gusting 23 -1.7
2017-Nov-23 09:17 150 13 gusting 23 -1.7
2017-Nov-23 09:12 127 12 gusting 23 -1.7
2017-Nov-23 09:07 144 13 gusting 23 -1.7
2017-Nov-23 09:02 153 14 gusting 23 -1.7
2017-Nov-23 08:57 159 14 gusting 22 -1.7
2017-Nov-23 08:53 134 13 gusting 22 -1.7
2017-Nov-23 08:47 169 13 gusting 24 -1.7
2017-Nov-23 08:42 148 13 gusting 24 -1.7
2017-Nov-23 08:37 136 14 gusting 23 -1.7
2017-Nov-23 08:33 151 14 gusting 23 -1.7
2017-Nov-23 08:27 136 13 gusting 23 -1.7
2017-Nov-23 07:59 141 13 gusting 24 -1.7
2017-Nov-23 07:52 133 13 gusting 21 -2.2
2017-Nov-23 07:47 153 14 gusting 21 -2.2
2017-Nov-23 07:42 133 13 gusting 21 -2.2
2017-Nov-23 07:37 147 14 gusting 24 -2.2
2017-Nov-23 07:27 153 13 gusting 21 -2.2
2017-Nov-23 07:22 155 13 gusting 21 -2.2
2017-Nov-23 07:17 130 13 gusting 21 -2.2
2017-Nov-23 07:13 140 13 gusting 23 -2.2
2017-Nov-23 07:07 149 13 gusting 23 -2.2
2017-Nov-23 07:02 138 14 gusting 23 -2.2
2017-Nov-23 06:57 126 13 gusting 19 -2.2
2017-Nov-23 06:52 148 13 gusting 19 -2.2
2017-Nov-23 06:47 153 13 gusting 20 -2.2
2017-Nov-23 06:42 128 13 gusting 20 -2.2
2017-Nov-23 06:37 127 12 gusting 23 -2.2
2017-Nov-23 06:32 144 12 gusting 23 -2.2
2017-Nov-23 06:27 150 13 gusting 23 -2.2
2017-Nov-23 06:22 141 13 gusting 23 -2.2
2017-Nov-23 06:18 157 13 gusting 23 -2.2
2017-Nov-23 06:12 157 13 gusting 23 -2.2
2017-Nov-23 06:07 158 13 gusting 21 -2.2
2017-Nov-23 06:02 163 14 gusting 21 -2.2
2017-Nov-23 05:57 146 15 gusting 21 -2.2
2017-Nov-23 05:52 143 14 gusting 21 -2.2
2017-Nov-23 05:48 140 14 gusting 22 -2.2
2017-Nov-23 05:42 127 13 gusting 22 -2.2
2017-Nov-23 05:37 138 13 gusting 22 -2.2
2017-Nov-23 05:32 144 13 gusting 19 -2.2
2017-Nov-23 05:27 174 12 gusting 19 -2.2
2017-Nov-23 05:22 140 12 gusting 19 -2.8
2017-Nov-23 05:13 137 12 gusting 19 -2.8
2017-Nov-23 05:07 146 13 gusting 19 -2.8
2017-Nov-23 05:04 157 12 gusting 19 -2.8
2017-Nov-23 04:57 129 12 gusting 18 -2.8
2017-Nov-23 04:52 146 12 gusting 18 -2.8
2017-Nov-23 04:47 126 11 gusting 18 -2.8
2017-Nov-23 04:44 155 12 gusting 18 -2.8
2017-Nov-23 04:37 163 12 gusting 18 -2.8
2017-Nov-23 04:32 135 12 gusting 18 -2.8
2017-Nov-23 04:27 158 11 gusting 18 -2.8
2017-Nov-23 04:22 150 11 gusting 18 -3.3
2017-Nov-23 04:17 139 11 gusting 17 -2.8
2017-Nov-23 04:13 144 11 gusting 17 -3.3
2017-Nov-23 04:07 140 12 gusting 17 -3.3
2017-Nov-23 04:02 140 11 gusting 17 -3.3
2017-Nov-23 03:57 140 11 gusting 17 -3.3
2017-Nov-23 03:52 140 11 gusting 17 -3.3
2017-Nov-23 03:47 153 10 gusting 19 -3.3
2017-Nov-23 03:42 159 9 gusting 19 -3.3
2017-Nov-23 03:37 127 11 gusting 14 -3.3
2017-Nov-23 03:32 150 10 gusting 14 -3.3
2017-Nov-23 03:28 146 8 gusting 14 -3.3
2017-Nov-23 03:17 141 10 gusting 17 -3.3
2017-Nov-23 03:14 147 9 gusting 17 -3.3
2017-Nov-23 03:07 130 10 gusting 19 -3.3
2017-Nov-23 03:02 138 11 gusting 19 -3.3
2017-Nov-23 02:57 142 11 gusting 19 -3.3
2017-Nov-23 02:52 136 11 gusting 22 -3.3
2017-Nov-23 02:47 142 12 gusting 22 -3.3
2017-Nov-23 02:42 153 12 gusting 19 -3.3
2017-Nov-23 02:37 170 12 gusting 19 -3.3
2017-Nov-23 02:32 142 11 gusting 17 -3.3
2017-Nov-23 02:27 136 9 gusting 17 -3.3
2017-Nov-23 02:22 136 9 gusting 17 -3.3
2017-Nov-23 02:17 113 10 gusting 17 -3.3
2017-Nov-23 02:12 148 9 gusting 17 -3.3
2017-Nov-23 02:08 103 10 gusting 17 -3.3
2017-Nov-23 02:02 113 10 gusting 19 -3.3
2017-Nov-23 01:57 158 10 gusting 19 -3.3
2017-Nov-23 01:52 116 12 gusting 19 -3.3
2017-Nov-23 01:42 155 11 gusting 17 -3.3
2017-Nov-23 01:37 144 10 gusting 17 -3.3
2017-Nov-23 01:32 147 8 gusting 16 -3.3
2017-Nov-23 01:27 123 8 gusting 16 -3.3
2017-Nov-23 01:22 155 9 gusting 15 -3.3
2017-Nov-23 01:17 165 8 gusting 15 -3.3
2017-Nov-23 01:12 149 6 gusting 13 -3.3
2017-Nov-23 01:09 129 6 gusting 13 -3.3
2017-Nov-23 01:02 127 6 gusting 13 -3.3
2017-Nov-23 00:52 142 6 gusting 16 -3.3
2017-Nov-23 00:47 119 6 gusting 16 -3.3
2017-Nov-23 00:42 157 7 gusting 13 -3.3
2017-Nov-23 00:37 138 9 gusting 13 -3.3
2017-Nov-23 00:32 109 8 gusting 14 -3.3
2017-Nov-23 00:27 121 8 gusting 14 -3.3
2017-Nov-23 00:22 151 7 gusting 14 -3.3
2017-Nov-23 00:17 147 8 gusting 14 -3.3
2017-Nov-23 00:12 146 8 gusting 12 -3.3
2017-Nov-23 00:08 145 7 gusting 13 -3.3
2017-Nov-23 00:02 136 7 gusting 13 -3.3
2017-Nov-22 23:59 134 6 gusting 13 -3.3
2017-Nov-22 23:52 121 8 gusting 14 -3.3
2017-Nov-22 23:47 163 7 gusting 14 -3.3
2017-Nov-22 23:42 165 6 gusting 14 -3.3
2017-Nov-22 23:37 143 7 gusting 14 -3.3
2017-Nov-22 23:27 148 6 gusting 13 -3.3
2017-Nov-22 23:22 134 6 gusting 13 -3.3
2017-Nov-22 23:17 155 6 gusting 13 -3.3
2017-Nov-22 23:12 136 5 gusting 13 -3.3
2017-Nov-22 23:07 131 5 gusting 13 -3.3
2017-Nov-22 23:02 146 6 gusting 13 -3.3
2017-Nov-22 22:58 138 6 gusting 16 -3.3
2017-Nov-22 22:32 128 6 gusting 9 -3.3
2017-Nov-22 21:42 132 6 gusting 14 -3.3
2017-Nov-22 21:39 130 6 gusting 14 -3.3
2017-Nov-22 21:32 128 6 gusting 16 -3.3
2017-Nov-22 21:27 148 6 gusting 16 -2.8
2017-Nov-22 21:17 128 9 gusting 16 -2.8
2017-Nov-22 21:12 150 7 gusting 10 -2.8
2017-Nov-22 21:07 114 5 gusting 10 -2.8
2017-Nov-22 21:02 111 5 gusting 9 -2.8
2017-Nov-22 20:57 094 5 gusting 9 -2.8
2017-Nov-22 20:52 148 3 gusting 8 -2.8
2017-Nov-22 20:47 123 3 gusting 8 -2.8
2017-Nov-22 20:42 110 3 gusting 9 -2.8
2017-Nov-22 19:57 140 6 gusting 12 -2.8
2017-Nov-22 19:52 126 6 gusting 13 -2.8
2017-Nov-22 19:47 122 6 gusting 13 -2.8
2017-Nov-22 19:42 138 6 gusting 13 -2.8
2017-Nov-22 19:37 123 6 gusting 13 -2.8
2017-Nov-22 19:32 100 6 gusting 14 -2.8
2017-Nov-22 19:27 128 6 gusting 14 -2.8
2017-Nov-22 19:22 106 8 gusting 16 -2.8
2017-Nov-22 19:17 121 9 gusting 16 -2.8
2017-Nov-22 19:12 121 10 gusting 16 -2.2
2017-Nov-22 19:07 132 9 gusting 16 -2.2